Change the Weather History Date:

Saturday, March 9, 2013

  Actual Average Record
Temperature  
Mean Temperature 58 °F -  
Max Temperature 70 °F 64 °F 85 °F (2004)
Min Temperature 45 °F 42 °F 32 °F (1990)
Degree Days  
Heating Degree Days 7    
Cooling Degree Days 0    
Growing Degree Days 8 (Base 50)    
Moisture  
Dew Point 26 °F    
Average Humidity 35    
Maximum Humidity 49    
Minimum Humidity 20    
Precipitation  
Precipitation 0.00 in 0.16 in 1.47 in (1995)
Month to date precipitation 1.29 1.61  
Year to date precipitation 2.80 13.08  
Since 1 July precipitation 21.96 26.84  
Sea Level Pressure  
Sea Level Pressure 30.24 in    
Wind  
Wind Speed 7 mph (NNW)    
Max Wind Speed 16 mph    
Max Gust Speed 21 mph    
Visibility 10 miles    
Events      
T = Trace of Precipitation, MM = Missing Value Source: NWS Daily Summary

Daily Weather History Graph

Daily Weather History Graph

Search for Another Location

Airport or City:

Trip Planner

Search our weather history database for the weather conditions in past years. The results will help you decide how hot, cold, wet, or windy it might be!

Date:

Astronomy

Mar. 09, 2013 Rise Set
Actual Time 6:29 AM PST 6:09 PM PST
Civil Twilight 6:02 AM PST 6:37 PM PST
Nautical Twilight 5:31 AM PST 7:08 PM PST
Astronomical Twilight 4:59 AM PST 7:40 PM PST
Moon 4:57 AM PST (3/9) 4:17 PM PST (3/9)
Length of Visible Light 12h 34m
Length of Day
11h 40m
Waning Crescent, 5% of the Moon is Illuminated
Mar 9
Waning Crescent
Mar 11
New
Mar 19
First Quarter
Mar 27
Full
Apr 2
Last Quarter

Hourly Weather History & Observations

Time (PST) Temp. Dew Point Humidity Pressure Visibility Wind Dir Wind Speed Gust Speed Precip Events Conditions
12:53 AM 51.1 °F 24.1 °F 35% 30.06 in 10.0 mi NNW 8.1 mph - N/A   Scattered Clouds
1:53 AM 50.0 °F 25.0 °F 38% 30.09 in 10.0 mi North 5.8 mph - N/A   Clear
2:53 AM 48.0 °F 26.1 °F 42% 30.10 in 10.0 mi NNW 5.8 mph - N/A   Clear
3:53 AM 48.0 °F 27.0 °F 44% 30.12 in 10.0 mi NNW 4.6 mph - N/A   Clear
4:53 AM 46.9 °F 27.0 °F 46% 30.15 in 10.0 mi NNW 5.8 mph - N/A   Clear
5:53 AM 48.0 °F 27.0 °F 44% 30.19 in 10.0 mi North 11.5 mph - N/A   Clear
6:53 AM 46.9 °F 28.0 °F 48% 30.23 in 10.0 mi NNW 5.8 mph - N/A   Clear
7:53 AM 50.0 °F 28.9 °F 44% 30.26 in 10.0 mi NW 5.8 mph - N/A   Clear
8:53 AM 55.0 °F 28.0 °F 35% 30.28 in 10.0 mi North 11.5 mph - N/A   Clear
9:53 AM 59.0 °F 26.1 °F 28% 30.30 in 10.0 mi North 13.8 mph - N/A   Clear
10:53 AM 61.0 °F 25.0 °F 25% 30.30 in 10.0 mi North 12.7 mph - N/A   Clear
11:53 AM 64.0 °F 27.0 °F 25% 30.29 in 10.0 mi North 10.4 mph - N/A   Clear
12:53 PM 64.0 °F 27.0 °F 25% 30.27 in 10.0 mi NNE 9.2 mph - N/A   Clear
1:53 PM 66.9 °F 26.1 °F 21% 30.25 in 10.0 mi North 5.8 mph - N/A   Clear
2:53 PM 69.1 °F 26.1 °F 20% 30.24 in 10.0 mi NNW 5.8 mph - N/A   Clear
3:53 PM 70.0 °F 26.1 °F 19% 30.24 in 10.0 mi NE 4.6 mph - N/A   Clear
4:53 PM 70.0 °F 21.9 °F 16% 30.24 in 10.0 mi NNW 3.5 mph - N/A   Clear
5:53 PM 66.0 °F 26.1 °F 22% 30.25 in 10.0 mi NE 3.5 mph - N/A   Clear
6:53 PM 61.0 °F 23.0 °F 23% 30.28 in 10.0 mi NNW 5.8 mph - N/A   Clear
7:53 PM 60.1 °F 23.0 °F 24% 30.28 in 10.0 mi North 6.9 mph - N/A   Clear
8:53 PM 53.1 °F 27.0 °F 37% 30.31 in 10.0 mi NNW 3.5 mph - N/A   Clear
9:53 PM 53.1 °F 26.1 °F 35% 30.33 in 10.0 mi NW 4.6 mph - N/A   Clear
10:53 PM 53.1 °F 26.1 °F 35% 30.33 in 10.0 mi North 8.1 mph - N/A   Clear
11:53 PM 51.1 °F 27.0 °F 39% 30.32 in 10.0 mi NNW 6.9 mph - N/A   Clear